Theta_e
313 311 310 310 309 310 308 308 308 309 310 311 312 313 313 316 320 318 318 318 318 317 316 314 314 314 316 315 317 320 320 320 320 320 320 321 320 320 322 322 322 324
313 313 318 314 312 315 312 308 309 310 311 312 314 315 317 319 320 320 319 319 318 314 313 313 314 314 314 314 316 316 317 316 317 323 320 319 319 320 321 321 322 323
312 312 310 309 308 308 309 309 310 309 311 313 317 319 320 321 320 321 321 322 315 312 312 312 312 313 313 314 317 315 315 315 316 318 319 319 319 319 320 321 322 324
312 312 311 310 308 308 308 310 309 312 312 312 315 319 321 321 321 320 318 319 312 312 312 312 311 311 312 313 315 314 314 314 315 316 317 318 319 319 319 320 323 324
313 311 311 310 309 310 310 309 309 309 310 310 313 318 320 318 318 317 315 312 311 311 311 311 310 311 312 312 313 313 314 313 313 314 313 314 315 317 319 322 322 321
312 312 313 311 311 310 307 308 309 309 311 311 312 316 314 314 312 313 312 310 311 311 310 310 310 310 310 311 311 310 310 310 310 310 310 311 312 316 319 322 323 321
312 311 311 312 311 308 308 308 307 313 310 310 314 311 312 312 312 311 310 311 309 312 309 308 309 309 309 309 308 307 307 307 308 308 308 309 312 313 317 320 322 321
311 311 310 312 310 309 309 308 308 309 311 314 310 311 313 313 313 313 311 310 310 309 308 308 309 308 308 309 307 306 305 308 307 306 307 307 310 311 313 315 317 319
311 310 311 310 308 308 308 308 308 307 311 310 310 310 313 312 310 309 310 309 309 309 308 308 308 307 307 307 306 305 304 304 306 305 305 306 308 310 311 313 316 317
311 310 311 309 308 308 307 307 308 307 314 309 311 310 311 311 311 310 309 308 309 308 308 308 310 310 309 308 307 305 304 304 304 305 305 306 307 308 310 313 315 315
310 310 310 308 308 307 307 307 307 309 313 311 309 310 311 311 314 310 308 308 309 309 310 310 311 311 310 310 308 307 305 304 304 305 305 306 307 308 313 313 314 314
309 309 309 308 308 307 307 307 308 309 309 311 310 310 310 310 309 308 311 308 308 309 311 312 313 311 310 310 309 307 305 304 305 305 306 306 307 309 311 312 314 314
309 310 310 308 309 307 307 307 308 309 309 309 312 310 310 310 309 308 311 309 309 310 312 312 312 313 312 310 307 304 304 304 304 304 305 306 308 309 311 313 314 314
309 310 307 307 308 307 306 307 309 308 308 310 312 309 309 308 307 309 308 312 310 310 313 314 314 313 311 307 305 303 303 303 303 304 305 306 307 308 311 312 314 315
310 307 307 308 309 306 306 307 309 308 309 309 311 311 312 308 308 308 308 309 309 308 310 312 313 312 309 306 303 302 301 302 302 303 304 305 306 308 310 312 314 315
308 309 308 306 306 306 305 307 307 308 308 307 308 308 307 309 309 308 308 307 307 309 310 311 311 310 313 311 308 304 302 302 302 303 304 305 306 307 309 312 314 316
307 308 306 305 305 305 304 305 306 309 307 307 307 307 307 308 309 305 305 306 308 310 309 309 310 312 307 296 296 299 302 301 302 303 304 304 305 306 308 312 315 317
306 306 304 305 305 304 304 306 308 307 305 305 305 305 306 307 304 304 305 305 309 309 308 309 310 312 296 296 296 296 300 303 301 301 303 304 306 308 311 313 315 317
305 304 304 303 303 304 306 306 305 305 305 304 304 305 306 305 304 303 304 305 306 306 308 311 312 301 295 297 296 295 295 300 300 302 304 306 309 310 311 313 316 317
305 304 303 303 304 304 305 304 305 305 304 303 304 305 303 302 303 303 303 303 305 306 308 309 308 305 295 296 296 295 294 295 301 304 306 308 310 311 312 313 314 314
304 304 303 302 304 303 303 304 304 303 303 304 305 302 302 303 303 301 302 306 306 307 308 309 309 301 294 295 295 294 294 296 303 308 309 309 309 311 309 309 308 310
304 303 304 303 303 302 302 302 302 302 303 302 304 302 302 302 302 302 304 306 307 308 308 308 308 294 292 294 294 294 294 303 305 307 308 309 309 309 308 308 308 306
304 303 303 302 302 302 301 302 301 300 301 302 302 301 301 300 303 303 305 306 307 308 308 308 308 299 293 294 294 294 296 301 302 305 308 310 309 312 310 309 309 307
304 304 304 304 301 301 301 300 300 300 302 304 302 301 300 301 302 303 304 305 305 307 307 305 304 304 295 294 294 294 299 299 301 303 306 310 307 310 309 307 307 312
304 304 303 302 301 300 300 301 300 302 301 302 302 300 301 301 303 303 303 304 304 305 312 311 307 305 296 293 294 293 297 299 300 302 305 306 304 304 307 306 304 307
304 305 304 303 301 300 301 300 301 300 299 298 297 298 299 299 300 301 300 302 301 302 305 307 304 303 300 294 294 294 294 301 300 299 303 304 304 305 307 304 304 303
Wind_Speed
4 3 1 2 4 5 4 4 3 3 0 1 1 3 3 4 4 4 4 4 5 4 4 4 4 5 6 5 2 2 2 2 3 3 3 4 4 4 5 4 3 4
5 3 1 2 2 2 4 4 3 2 1 2 3 2 3 2 4 3 4 4 3 3 3 4 4 4 5 6 4 1 2 3 5 4 4 5 5 4 5 5 5 4
5 3 3 3 3 3 4 4 3 2 3 2 3 2 3 3 4 5 4 2 3 3 4 3 4 4 4 5 4 3 3 4 5 6 5 5 5 5 5 5 5 5
5 5 4 4 3 4 4 2 1 1 1 1 2 3 3 3 3 4 2 3 4 4 4 4 4 4 4 4 4 4 4 4 4 4 5 5 5 5 6 5 4 4
6 4 3 3 3 3 2 1 1 3 3 2 3 3 3 3 4 3 3 3 3 4 4 4 4 4 4 4 4 4 4 4 4 4 5 5 6 5 6 5 4 4
4 5 4 4 4 4 3 2 1 3 4 3 3 2 3 2 2 1 1 3 3 3 3 3 4 4 4 3 4 4 3 5 5 5 5 5 6 6 5 6 4 4
5 5 4 4 4 4 4 2 1 1 3 3 1 1 1 1 1 2 1 1 2 1 2 3 3 3 3 2 3 3 4 4 4 5 6 6 6 7 6 6 5 5
6 5 4 5 4 4 4 3 0 1 4 2 1 1 1 0 2 2 1 1 0 1 2 3 3 2 2 0 2 3 4 4 5 5 6 6 6 7 8 6 5 5
6 5 4 5 5 4 4 2 1 2 2 3 2 1 1 1 3 3 2 0 1 2 3 3 4 2 1 0 1 1 2 4 4 4 4 6 7 8 8 7 7 6
6 5 5 5 5 5 4 3 3 2 2 3 2 2 0 0 2 3 2 1 1 2 3 4 3 3 2 1 0 0 2 3 4 5 5 4 6 7 8 7 7 6
6 5 5 5 5 4 4 4 3 3 4 3 2 1 0 0 2 2 2 1 2 3 3 4 3 3 3 2 1 0 2 3 4 5 5 6 6 6 8 8 7 6
6 5 5 7 6 5 5 5 4 4 4 2 2 1 1 0 3 3 2 2 2 3 3 4 4 3 2 2 1 2 3 3 4 4 5 6 6 6 7 8 7 8
6 6 6 6 6 6 5 4 5 4 4 3 3 1 1 1 2 3 3 3 2 3 3 3 4 3 2 1 1 1 3 4 5 5 6 6 5 6 7 8 8 7
6 6 4 6 6 5 5 5 5 4 4 4 3 2 2 2 2 2 2 3 3 3 4 3 3 2 2 2 1 2 3 4 4 5 6 7 7 6 6 7 8 8
5 2 4 6 6 5 5 5 5 4 4 3 2 1 2 3 2 2 2 3 3 4 4 3 3 3 3 2 2 3 3 4 5 5 6 7 7 7 7 7 7 7
4 4 4 5 5 6 6 5 4 4 4 4 2 2 2 1 1 1 1 2 3 4 4 3 3 3 3 2 1 2 3 4 5 6 5 6 6 7 8 7 7 7
3 4 4 6 6 6 4 3 4 4 4 2 1 1 2 1 1 2 3 3 3 3 4 4 3 2 4 4 4 4 3 4 4 6 6 5 5 5 7 7 7 7
4 4 4 5 5 4 3 4 5 4 4 4 3 2 3 1 2 3 3 4 3 3 3 4 2 4 6 6 5 6 5 4 4 5 5 5 5 5 6 6 6 6
5 5 6 4 4 4 5 5 6 5 5 4 4 4 2 2 4 4 4 4 3 4 4 3 2 4 7 6 6 6 6 5 5 5 5 6 6 6 6 6 5 4
4 4 4 3 5 5 5 5 6 6 6 5 4 3 3 4 4 4 4 4 4 4 4 3 2 6 8 8 7 6 7 4 4 6 6 5 6 6 5 5 3 3
4 4 4 3 5 5 5 5 6 5 5 5 5 4 4 5 6 4 4 4 4 4 4 3 4 6 7 7 6 6 8 5 4 5 6 5 5 5 3 1 1 2
5 5 4 4 5 5 5 5 5 5 6 4 4 4 4 3 4 3 4 6 6 5 4 4 3 6 7 7 6 7 6 4 4 5 5 3 4 3 3 1 1 1
5 5 4 4 5 6 6 5 5 4 4 3 4 4 4 4 5 4 5 5 5 4 4 4 4 7 8 7 7 7 3 4 4 5 5 4 4 3 2 2 1 0
5 5 5 5 5 6 6 5 4 4 5 3 4 5 5 6 5 5 5 5 5 6 5 4 4 6 9 8 8 6 4 3 4 5 5 2 4 3 2 2 2 5
5 5 5 5 5 5 5 5 5 5 3 3 4 3 4 4 3 4 5 5 5 5 9 7 5 6 9 8 6 5 4 3 3 4 5 2 3 4 2 3 3 3
4 5 5 5 6 5 4 5 4 2 3 3 3 3 3 3 2 3 4 5 4 4 5 3 4 5 5 7 6 7 6 4 3 3 5 3 2 3 3 3 3 4
Wind_Direction
194 210 166 196 217 215 228 241 251 239 271 244 272 288 294 291 305 313 313 328 335 340 337 346 360 358 345 341 309 312 298 293 308 298 303 306 302 303 301 297 283 253
201 202 164 176 227 236 237 221 236 206 207 239 252 267 279 293 312 311 325 331 342 341 354 9 12 3 353 348 344 286 306 325 319 313 312 313 304 304 298 292 287 282
195 184 159 174 204 227 230 232 233 206 197 230 278 298 304 322 322 336 339 351 5 358 8 9 15 8 3 357 352 340 0 339 337 329 321 309 310 310 298 293 284 284
200 196 175 189 189 222 229 237 295 221 221 287 278 285 299 308 337 343 344 20 19 7 356 6 3 2 6 1 357 355 356 359 340 340 341 327 321 317 308 301 281 285
191 198 178 173 195 219 199 204 249 211 202 227 282 295 311 330 355 349 19 16 24 14 9 359 353 359 359 8 16 11 2 1 351 350 345 335 324 325 310 305 297 285
192 187 168 168 183 179 196 210 228 215 205 233 244 278 301 350 24 27 29 39 18 22 2 355 350 349 5 5 20 20 1 0 346 347 345 335 323 319 316 313 298 296
187 193 177 173 168 190 195 221 236 221 210 224 246 276 301 350 129 148 90 59 31 349 358 332 334 345 345 2 24 8 356 353 350 348 340 328 322 318 320 321 316 307
188 191 176 167 167 198 199 218 225 214 217 231 220 284 257 191 182 164 171 155 211 335 329 310 312 326 315 346 38 11 354 346 344 342 334 325 324 318 320 318 310 311
184 187 173 162 166 181 188 197 227 248 213 209 221 266 288 180 192 182 166 149 357 302 305 298 294 280 259 186 98 43 350 335 325 327 325 322 319 313 310 310 312 319
188 186 171 170 169 181 175 198 220 248 180 199 212 220 264 278 203 188 166 155 268 284 285 274 287 298 271 228 171 89 322 319 320 322 318 307 301 303 304 303 305 317
192 183 177 179 181 173 183 201 215 203 188 201 196 218 222 163 212 213 156 200 248 271 267 268 269 265 267 265 229 251 312 320 318 312 309 304 297 293 297 299 305 308
194 191 193 189 178 177 194 201 204 194 190 212 182 207 288 176 208 237 206 228 255 260 258 266 269 263 269 226 261 319 323 314 303 299 297 297 296 294 296 301 298 297
197 207 198 179 174 188 200 203 204 199 180 196 206 189 232 192 230 237 251 222 254 266 271 276 276 273 235 222 276 306 301 304 304 300 297 294 291 291 293 296 293 289
208 216 167 173 181 194 201 204 206 191 193 209 174 181 198 209 217 219 238 230 240 254 269 278 280 251 221 241 258 273 301 303 302 299 297 296 294 294 295 293 290 289
209 154 172 183 188 196 205 208 203 192 199 198 174 227 221 220 222 204 218 252 268 264 271 268 255 233 225 218 266 310 304 302 302 300 295 296 300 303 302 298 297 292
189 184 183 188 187 207 211 206 188 188 195 191 198 230 258 281 258 253 239 250 261 274 267 252 246 234 214 201 265 281 297 292 296 292 292 293 299 304 304 302 294 302
187 193 178 189 204 213 216 179 178 187 186 162 201 232 240 245 225 284 284 266 254 256 267 260 245 226 170 202 235 266 277 277 284 293 293 290 287 289 293 297 308 308
200 180 181 204 209 218 189 179 165 157 155 167 184 208 240 243 280 263 260 262 265 271 264 257 237 184 187 217 243 258 259 273 277 280 290 289 286 281 283 290 297 300
166 173 190 192 196 177 163 146 145 152 168 177 199 215 202 248 252 260 269 262 254 263 269 264 216 198 210 226 247 261 269 274 281 276 277 285 290 290 287 285 291 304
183 184 199 186 159 155 150 150 156 176 188 195 193 195 197 236 256 251 262 271 261 257 259 245 207 201 213 231 250 271 279 280 277 280 278 284 296 300 290 276 299 309
180 181 199 177 168 165 164 170 179 190 197 199 194 196 213 229 242 253 264 268 273 265 258 248 217 203 216 237 255 269 287 291 276 282 286 291 308 307 307 310 329 310
201 210 202 171 173 176 177 189 197 191 198 210 210 226 241 258 263 230 253 265 262 258 261 259 231 213 225 236 253 266 289 296 299 292 284 298 324 323 318 313 327 311
212 207 209 191 178 179 192 203 205 220 236 217 213 232 247 263 252 249 244 254 269 270 261 260 233 220 223 237 244 260 305 299 297 297 294 325 340 316 296 305 324 105
213 205 200 200 187 191 200 212 216 219 222 202 196 229 242 243 242 250 260 256 260 270 258 250 244 220 212 228 238 258 264 279 285 288 286 330 337 325 294 313 351 11
201 197 193 192 196 209 193 192 197 199 215 189 215 216 233 252 259 239 265 277 262 257 271 264 218 223 214 225 245 268 270 265 272 280 290 323 331 313 269 292 303 314
195 196 195 186 199 201 195 195 193 181 194 180 220 205 234 242 249 239 244 259 263 269 272 249 207 223 211 219 245 256 258 269 268 275 288 296 308 287 262 279 299 314